Location: Casone le Fosse
(44.6547°N, 12.1103°E)
Time: 11:56:37
(UTC+00:00)

Cosmos 1992 Rocket - Pass Details

Date: 29 October 2020
Orbit: 759 x 765 km, 74.0° (Epoch: 28 November)

Event Time Altitude Azimuth Distance (km) Brightness Sun altitude
Rises 17:31:14 0° 195° (SSW) 3,205 7.5 -16.0°
Reaches altitude 10° 17:33:35 10° 193° (SSW) 2,283 6.7 -16.4°
Maximum altitude 17:38:45 77° 109° (ESE) 783 3.9 -17.3°
Drops below altitude 10° 17:43:58 10° 24° (NNE) 2,298 6.2 -18.2°
Enters shadow 17:45:22 - 23° (NNE) 2,848 6.7 -18.5°
